RYR12FY EGSS-EGCC

Flight info

Callsign RYR12FY
Flight time N/A
Altitude 18000
Route UTAVA Q75 BUZAD T420 ELVOS
Aircraft B736/M-SDE2E3FGHIRWXY/LB1

Departure

Time N/A
Airport London Stansted Airport (EGSS)

Arrival

Time 2026-04-30 18:17
Airport Manchester Airport (EGCC)
Time Latitude Longitude Altitude Speed Heading
2026-04-30 17:39 51.96007 -0.32677 12214 ft 309 kts 259°
2026-04-30 17:41 51.98208 -0.59386 13814 ft 365 kts 329°
2026-04-30 17:42 52.02622 -0.63554 15786 ft 373 kts 331°
2026-04-30 17:42 52.09479 -0.70128 18632 ft 389 kts 329°
2026-04-30 17:43 52.14177 -0.74750 19960 ft 396 kts 329°
2026-04-30 17:44 52.21260 -0.81777 20213 ft 397 kts 329°
2026-04-30 17:44 52.27525 -0.87999 20212 ft 397 kts 329°
2026-04-30 17:46 52.39339 -0.99737 20210 ft 398 kts 329°
2026-04-30 17:47 52.48794 -1.09191 20130 ft 398 kts 328°
2026-04-30 17:48 52.58205 -1.18732 20071 ft 398 kts 328°
2026-04-30 17:48 52.65184 -1.25800 20053 ft 394 kts 328°
2026-04-30 17:49 52.68733 -1.29407 20050 ft 396 kts 328°
2026-04-30 18:02 52.73780 -1.34542 19455 ft 399 kts 327°
2026-04-30 18:02 52.80766 -1.41661 17976 ft 386 kts 327°
2026-04-30 18:03 52.87460 -1.48511 16605 ft 373 kts 327°
2026-04-30 18:04 52.94056 -1.55289 15324 ft 369 kts 328°
2026-04-30 18:05 53.02726 -1.64231 13574 ft 367 kts 327°
2026-04-30 18:06 53.09889 -1.75624 11850 ft 350 kts 308°
2026-04-30 18:07 53.15941 -1.87440 10250 ft 316 kts 308°
2026-04-30 18:08 53.20015 -1.95382 9173 ft 292 kts 307°
2026-04-30 18:09 53.23783 -2.06433 7814 ft 258 kts 263°
2026-04-30 18:10 53.23329 -2.18429 6646 ft 262 kts 261°
2026-04-30 18:11 53.22884 -2.30304 5431 ft 246 kts 261°
2026-04-30 18:11 53.22576 -2.38575 4569 ft 233 kts 261°
2026-04-30 18:12 53.22278 -2.46426 3778 ft 218 kts 261°
2026-04-30 18:13 53.23767 -2.50337 3318 ft 219 kts 351°
2026-04-30 18:13 53.26230 -2.47265 2956 ft 160 kts 70°
2026-04-30 18:14 53.27548 -2.44070 2475 ft 133 kts 65°
2026-04-30 18:15 53.28988 -2.40195 1563 ft 131 kts 68°
2026-04-30 18:15 53.30499 -2.36736 1132 ft 124 kts 58°
2026-04-30 18:16 53.31551 -2.34489 797 ft 115 kts 60°
2026-04-30 18:16 53.32578 -2.32350 464 ft 123 kts 57°
2026-04-30 18:17 53.33122 -2.31226 311 ft 123 kts 54°
2026-04-30 18:17 53.33642 -2.30152 209 ft 110 kts 53°
2026-04-30 18:17 53.34163 -2.29064 219 ft 34 kts 52°
2026-04-30 18:18 53.34304 -2.28772 220 ft 31 kts 51°
2026-04-30 18:18 53.34465 -2.28565 223 ft 29 kts 21°
2026-04-30 18:18 53.34555 -2.28505 226 ft 8 kts 23°
2026-04-30 18:18 53.34567 -2.28497 225 ft 0 kts 23°
2026-04-30 18:19 53.34567 -2.28496 225 ft 0 kts 23°
2026-04-30 18:19 53.34606 -2.28468 227 ft 13 kts 24°
2026-04-30 18:20 53.34709 -2.28395 227 ft 17 kts 37°
2026-04-30 18:20 53.34784 -2.28250 227 ft 16 kts 52°
2026-04-30 18:20 53.34853 -2.28110 229 ft 16 kts 51°
2026-04-30 18:20 53.34892 -2.28029 230 ft 0 kts 51°
2026-04-30 18:22 53.34901 -2.28009 230 ft 5 kts 52°
2026-04-30 18:22 53.34987 -2.27833 232 ft 13 kts 50°
2026-04-30 18:22 53.35052 -2.27700 234 ft 16 kts 51°
2026-04-30 18:23 53.35127 -2.27543 236 ft 18 kts 51°
2026-04-30 18:23 53.35212 -2.27364 238 ft 21 kts 50°
2026-04-30 18:23 53.35298 -2.27207 239 ft 16 kts 31°
2026-04-30 18:23 53.35338 -2.27190 239 ft 0 kts
2026-04-30 18:25 53.35370 -2.27195 240 ft 13 kts 346°
2026-04-30 18:25 53.35469 -2.27319 241 ft 19 kts 322°
2026-04-30 18:26 53.35568 -2.27452 240 ft 0 kts 322°
2026-04-30 18:27 53.35577 -2.27463 240 ft 4 kts 323°
2026-04-30 18:28 53.35671 -2.27347 241 ft 14 kts 52°
2026-04-30 18:28 53.35743 -2.27203 243 ft 18 kts 50°
2026-04-30 18:28 53.35888 -2.26862 247 ft 17 kts 50°
2026-04-30 18:29 53.35993 -2.26824 249 ft 17 kts 52°
2026-04-30 18:29 53.36135 -2.26591 252 ft 4 kts 314°
2026-04-30 18:30 53.36171 -2.26640 251 ft 0 kts 320°